QPF
0.00 0.00 0.01 0.01 0.01 0.01 0.01 0.02 0.03 0.01 0.01 0.01 0.01 0.01 0.01 0.02 0.02 0.02 0.02 0.01 0.01 0.00 0.00 0.00 0.00 0.00 0.00 0.01 0.01 0.01 0.01 0.01 0.01 0.01 0.00 0.00 0.00 0.00 0.00 0.00 0.01 0.01 0.02 0.02
0.00 0.00 0.01 0.01 0.01 0.01 0.01 0.01 0.01 0.01 0.01 0.01 0.01 0.01 0.01 0.01 0.01 0.02 0.03 0.03 0.02 0.02 0.01 0.00 0.00 0.00 0.00 0.01 0.01 0.01 0.02 0.01 0.01 0.00 0.00 0.00 0.00 0.00 0.00 0.00 0.01 0.01 0.02 0.03
0.01 0.01 0.01 0.02 0.01 0.01 0.01 0.01 0.01 0.01 0.01 0.01 0.01 0.01 0.01 0.01 0.01 0.01 0.02 0.03 0.03 0.03 0.03 0.02 0.01 0.00 0.00 0.01 0.01 0.02 0.03 0.02 0.01 0.01 0.01 0.00 0.00 0.00 0.00 0.00 0.00 0.00 0.01 0.02
0.03 0.02 0.03 0.02 0.01 0.01 0.01 0.01 0.01 0.01 0.01 0.01 0.02 0.02 0.02 0.01 0.01 0.01 0.01 0.01 0.02 0.02 0.03 0.03 0.03 0.02 0.01 0.01 0.01 0.02 0.03 0.02 0.01 0.01 0.01 0.01 0.01 0.00 0.00 0.00 0.00 0.01 0.02 0.02
0.04 0.03 0.02 0.01 0.01 0.01 0.01 0.02 0.02 0.01 0.02 0.03 0.03 0.03 0.03 0.02 0.01 0.01 0.01 0.01 0.01 0.01 0.02 0.02 0.02 0.03 0.03 0.03 0.03 0.03 0.02 0.02 0.01 0.01 0.01 0.00 0.01 0.01 0.01 0.01 0.01 0.02 0.03 0.03
0.04 0.03 0.02 0.01 0.01 0.01 0.01 0.02 0.02 0.02 0.02 0.03 0.03 0.03 0.03 0.02 0.02 0.02 0.01 0.01 0.01 0.01 0.01 0.01 0.01 0.01 0.01 0.02 0.03 0.03 0.04 0.03 0.02 0.01 0.01 0.00 0.00 0.01 0.02 0.02 0.02 0.03 0.03 0.02
0.03 0.02 0.02 0.01 0.01 0.01 0.02 0.03 0.03 0.03 0.02 0.02 0.02 0.02 0.02 0.02 0.02 0.02 0.02 0.02 0.01 0.01 0.00 0.00 0.00 0.00 0.00 0.00 0.01 0.02 0.02 0.03 0.02 0.02 0.01 0.01 0.01 0.01 0.02 0.02 0.03 0.02 0.02 0.01
0.03 0.02 0.02 0.02 0.01 0.02 0.03 0.03 0.03 0.03 0.03 0.03 0.02 0.02 0.02 0.02 0.02 0.02 0.02 0.02 0.02 0.01 0.01 0.01 0.00 0.00 0.00 0.00 0.01 0.02 0.02 0.02 0.01 0.01 0.01 0.01 0.01 0.02 0.02 0.01 0.01 0.01 0.01 0.01
0.02 0.03 0.03 0.03 0.02 0.03 0.03 0.03 0.03 0.03 0.03 0.03 0.02 0.02 0.02 0.02 0.03 0.03 0.02 0.02 0.02 0.02 0.02 0.02 0.01 0.01 0.01 0.01 0.01 0.02 0.03 0.03 0.02 0.01 0.01 0.01 0.01 0.01 0.02 0.01 0.01 0.00 0.01 0.01
0.02 0.02 0.02 0.02 0.02 0.02 0.02 0.02 0.02 0.02 0.02 0.02 0.02 0.02 0.02 0.02 0.02 0.02 0.02 0.01 0.01 0.01 0.02 0.02 0.01 0.01 0.01 0.01 0.01 0.01 0.02 0.03 0.03 0.02 0.02 0.02 0.02 0.01 0.01 0.01 0.01 0.01 0.01 0.01
0.02 0.02 0.02 0.02 0.02 0.01 0.01 0.01 0.01 0.01 0.01 0.01 0.01 0.01 0.02 0.02 0.02 0.02 0.01 0.01 0.01 0.01 0.01 0.01 0.01 0.01 0.00 0.00 0.01 0.01 0.02 0.02 0.02 0.02 0.02 0.02 0.02 0.02 0.01 0.01 0.01 0.01 0.01 0.01
0.02 0.02 0.02 0.01 0.01 0.00 0.00 0.00 0.00 0.00 0.01 0.01 0.01 0.01 0.01 0.01 0.02 0.01 0.01 0.01 0.00 0.00 0.01 0.01 0.01 0.01 0.00 0.00 0.01 0.01 0.01 0.02 0.01 0.01 0.02 0.02 0.02 0.03 0.02 0.01 0.01 0.01 0.01 0.02
0.02 0.02 0.02 0.01 0.00 0.00 0.00 0.00 0.00 0.00 0.01 0.01 0.01 0.01 0.01 0.01 0.01 0.01 0.01 0.01 0.01 0.00 0.00 0.01 0.01 0.01 0.01 0.00 0.01 0.01 0.01 0.02 0.02 0.01 0.02 0.03 0.02 0.03 0.03 0.03 0.02 0.02 0.02 0.02
0.01 0.01 0.01 0.01 0.01 0.01 0.01 0.01 0.00 0.00 0.00 0.01 0.01 0.01 0.01 0.01 0.01 0.01 0.01 0.01 0.01 0.01 0.01 0.01 0.01 0.01 0.01 0.01 0.01 0.01 0.01 0.02 0.02 0.02 0.02 0.03 0.03 0.03 0.03 0.03 0.03 0.03 0.02 0.02
0.01 0.01 0.01 0.01 0.01 0.01 0.01 0.01 0.01 0.00 0.00 0.00 0.01 0.01 0.01 0.01 0.01 0.01 0.01 0.01 0.01 0.01 0.01 0.01 0.01 0.01 0.01 0.01 0.02 0.02 0.02 0.02 0.02 0.02 0.02 0.03 0.03 0.03 0.03 0.03 0.03 0.03 0.03 0.03
0.01 0.01 0.01 0.01 0.01 0.01 0.01 0.01 0.01 0.01 0.01 0.01 0.01 0.01 0.01 0.01 0.01 0.01 0.01 0.01 0.01 0.01 0.01 0.01 0.01 0.01 0.01 0.01 0.02 0.02 0.02 0.02 0.02 0.03 0.03 0.03 0.03 0.03 0.03 0.03 0.03 0.03 0.03 0.03
0.01 0.01 0.01 0.01 0.01 0.01 0.01 0.01 0.01 0.01 0.01 0.01 0.01 0.01 0.01 0.01 0.01 0.01 0.01 0.01 0.01 0.01 0.01 0.01 0.01 0.01 0.01 0.01 0.02 0.02 0.02 0.02 0.02 0.03 0.03 0.02 0.02 0.02 0.03 0.03 0.02 0.02 0.02 0.02
0.01 0.01 0.01 0.01 0.01 0.01 0.01 0.01 0.01 0.01 0.01 0.01 0.01 0.01 0.01 0.01 0.02 0.02 0.02 0.01 0.01 0.01 0.01 0.01 0.01 0.01 0.01 0.01 0.02 0.02 0.02 0.02 0.02 0.02 0.02 0.02 0.02 0.02 0.02 0.02 0.02 0.02 0.02 0.02
0.01 0.01 0.01 0.01 0.01 0.01 0.01 0.00 0.00 0.00 0.01 0.01 0.01 0.01 0.01 0.01 0.01 0.01 0.01 0.01 0.01 0.01 0.01 0.01 0.01 0.01 0.01 0.01 0.02 0.02 0.02 0.02 0.02 0.02 0.02 0.02 0.02 0.02 0.02 0.02 0.02 0.02 0.02 0.02
0.00 0.00 0.00 0.01 0.00 0.01 0.01 0.00 0.00 0.00 0.00 0.00 0.01 0.01 0.01 0.01 0.01 0.01 0.01 0.01 0.01 0.01 0.01 0.01 0.01 0.01 0.01 0.01 0.01 0.01 0.01 0.01 0.01 0.02 0.02 0.02 0.02 0.02 0.02 0.02 0.02 0.02 0.02 0.01
0.00 0.00 0.00 0.00 0.01 0.00 0.01 0.01 0.00 0.00 0.00 0.00 0.01 0.01 0.01 0.01 0.01 0.01 0.01 0.01 0.01 0.01 0.01 0.01 0.01 0.01 0.01 0.01 0.01 0.01 0.01 0.01 0.01 0.01 0.01 0.01 0.01 0.02 0.02 0.02 0.02 0.02 0.02 0.02
0.00 0.00 0.01 0.01 0.01 0.01 0.01 0.01 0.01 0.01 0.01 0.01 0.01 0.01 0.01 0.01 0.01 0.01 0.01 0.01 0.01 0.01 0.01 0.01 0.01 0.01 0.02 0.02 0.01 0.01 0.01 0.01 0.01 0.01 0.01 0.01 0.02 0.02 0.02 0.02 0.02 0.01 0.02 0.02
0.00 0.01 0.01 0.01 0.01 0.01 0.01 0.01 0.01 0.01 0.01 0.01 0.01 0.01 0.01 0.01 0.01 0.01 0.01 0.01 0.01 0.01 0.01 0.01 0.01 0.02 0.02 0.02 0.02 0.01 0.01 0.01 0.01 0.01 0.02 0.02 0.02 0.02 0.02 0.02 0.02 0.02 0.02 0.02
0.01 0.01 0.01 0.01 0.01 0.01 0.01 0.01 0.02 0.02 0.02 0.02 0.02 0.02 0.02 0.01 0.01 0.01 0.01 0.01 0.01 0.01 0.01 0.01 0.02 0.02 0.02 0.02 0.02 0.01 0.01 0.02 0.02 0.02 0.02 0.02 0.02 0.02 0.02 0.02 0.02 0.02 0.02 0.02
0.01 0.01 0.01 0.01 0.01 0.01 0.01 0.01 0.01 0.01 0.02 0.02 0.02 0.02 0.02 0.02 0.02 0.02 0.01 0.01 0.01 0.01 0.01 0.01 0.01 0.02 0.02 0.02 0.02 0.02 0.02 0.02 0.02 0.02 0.02 0.02 0.02 0.02 0.02 0.02 0.03 0.02 0.02 0.02
0.01 0.01 0.01 0.01 0.01 0.01 0.01 0.01 0.01 0.01 0.02 0.02 0.02 0.02 0.02 0.02 0.02 0.02 0.01 0.01 0.01 0.01 0.01 0.01 0.01 0.02 0.02 0.02 0.02 0.03 0.03 0.03 0.03 0.03 0.02 0.02 0.02 0.02 0.02 0.02 0.03 0.03 0.02 0.02
0.01 0.01 0.01 0.01 0.01 0.01 0.01 0.01 0.01 0.01 0.02 0.02 0.02 0.02 0.02 0.02 0.02 0.01 0.01 0.01 0.01 0.01 0.01 0.01 0.01 0.01 0.02 0.02 0.02 0.02 0.03 0.03 0.03 0.03 0.03 0.03 0.03 0.03 0.03 0.03 0.03 0.03 0.03 0.03
MSLP
1009.22 1009.12 1009.02 1008.94 1008.93 1009.05 1009.32 1009.78 1010.43 1011.24 1012.19 1013.22 1014.24 1015.19 1016.00 1016.62 1017.02 1017.22 1017.23 1017.10 1016.90 1016.67 1016.48 1016.36 1016.30 1016.32 1016.37 1016.43 1016.47 1016.45 1016.36 1016.22 1016.03 1015.84 1015.66 1015.54 1015.49 1015.52 1015.63 1015.79 1016.00 1016.23 1016.46 1016.68
1010.71 1010.56 1010.37 1010.17 1010.01 1009.96 1010.05 1010.32 1010.80 1011.48 1012.33 1013.28 1014.28 1015.24 1016.09 1016.78 1017.28 1017.59 1017.72 1017.70 1017.61 1017.48 1017.36 1017.28 1017.25 1017.26 1017.29 1017.32 1017.29 1017.21 1017.06 1016.84 1016.58 1016.30 1016.03 1015.81 1015.65 1015.57 1015.55 1015.60 1015.68 1015.80 1015.94 1016.09
1012.23 1012.03 1011.75 1011.44 1011.14 1010.91 1010.83 1010.93 1011.24 1011.77 1012.49 1013.36 1014.31 1015.26 1016.15 1016.91 1017.50 1017.92 1018.17 1018.28 1018.29 1018.26 1018.22 1018.19 1018.18 1018.20 1018.21 1018.20 1018.13 1018.00 1017.80 1017.53 1017.22 1016.88 1016.55 1016.25 1016.00 1015.82 1015.69 1015.61 1015.59 1015.59 1015.64 1015.72
1013.59 1013.33 1012.98 1012.56 1012.14 1011.79 1011.56 1011.51 1011.67 1012.07 1012.68 1013.47 1014.37 1015.31 1016.22 1017.03 1017.71 1018.23 1018.60 1018.83 1018.95 1019.02 1019.05 1019.07 1019.09 1019.11 1019.10 1019.06 1018.97 1018.80 1018.57 1018.27 1017.93 1017.57 1017.20 1016.86 1016.55 1016.29 1016.07 1015.90 1015.76 1015.67 1015.62 1015.63
1014.67 1014.34 1013.91 1013.42 1012.91 1012.47 1012.14 1011.99 1012.06 1012.37 1012.90 1013.62 1014.48 1015.41 1016.33 1017.19 1017.93 1018.54 1019.01 1019.35 1019.57 1019.72 1019.82 1019.89 1019.93 1019.95 1019.94 1019.88 1019.76 1019.58 1019.33 1019.03 1018.69 1018.33 1017.96 1017.60 1017.27 1016.96 1016.68 1016.43 1016.21 1016.03 1015.89 1015.82
1015.37 1014.97 1014.48 1013.94 1013.39 1012.91 1012.54 1012.36 1012.39 1012.66 1013.15 1013.83 1014.67 1015.58 1016.51 1017.39 1018.18 1018.86 1019.40 1019.82 1020.13 1020.35 1020.50 1020.61 1020.67 1020.70 1020.68 1020.61 1020.48 1020.29 1020.05 1019.76 1019.44 1019.10 1018.76 1018.41 1018.08 1017.76 1017.45 1017.16 1016.88 1016.62 1016.41 1016.25
1015.70 1015.23 1014.70 1014.14 1013.59 1013.13 1012.79 1012.63 1012.69 1012.97 1013.46 1014.14 1014.96 1015.86 1016.78 1017.66 1018.47 1019.17 1019.76 1020.22 1020.58 1020.85 1021.05 1021.19 1021.27 1021.30 1021.28 1021.21 1021.08 1020.90 1020.68 1020.42 1020.13 1019.83 1019.53 1019.22 1018.92 1018.61 1018.30 1017.98 1017.66 1017.35 1017.07 1016.83
1015.71 1015.19 1014.63 1014.09 1013.59 1013.20 1012.95 1012.87 1013.00 1013.34 1013.87 1014.56 1015.38 1016.26 1017.15 1018.01 1018.80 1019.49 1020.08 1020.56 1020.94 1021.24 1021.46 1021.61 1021.71 1021.75 1021.74 1021.67 1021.55 1021.38 1021.18 1020.96 1020.71 1020.46 1020.21 1019.95 1019.68 1019.40 1019.10 1018.79 1018.45 1018.10 1017.76 1017.45
1015.53 1014.97 1014.42 1013.92 1013.51 1013.23 1013.10 1013.15 1013.40 1013.82 1014.41 1015.13 1015.94 1016.79 1017.63 1018.44 1019.17 1019.82 1020.37 1020.84 1021.21 1021.51 1021.73 1021.90 1022.01 1022.06 1022.05 1022.00 1021.89 1021.74 1021.57 1021.37 1021.17 1020.95 1020.74 1020.53 1020.30 1020.05 1019.78 1019.47 1019.13 1018.76 1018.38 1018.02
1015.31 1014.74 1014.22 1013.79 1013.48 1013.34 1013.36 1013.55 1013.92 1014.45 1015.10 1015.84 1016.64 1017.44 1018.22 1018.95 1019.60 1020.17 1020.66 1021.07 1021.41 1021.69 1021.91 1022.08 1022.20 1022.26 1022.26 1022.22 1022.13 1022.00 1021.84 1021.66 1021.48 1021.30 1021.12 1020.93 1020.73 1020.50 1020.25 1019.95 1019.61 1019.24 1018.84 1018.44
1015.22 1014.66 1014.19 1013.84 1013.66 1013.64 1013.81 1014.14 1014.63 1015.24 1015.94 1016.70 1017.46 1018.21 1018.90 1019.53 1020.08 1020.55 1020.96 1021.30 1021.59 1021.83 1022.03 1022.20 1022.31 1022.38 1022.40 1022.37 1022.29 1022.16 1022.02 1021.85 1021.67 1021.50 1021.32 1021.14 1020.95 1020.73 1020.49 1020.20 1019.87 1019.50 1019.10 1018.69
1015.39 1014.87 1014.47 1014.21 1014.13 1014.23 1014.51 1014.95 1015.53 1016.19 1016.92 1017.66 1018.38 1019.05 1019.65 1020.17 1020.60 1020.97 1021.28 1021.54 1021.76 1021.96 1022.13 1022.28 1022.39 1022.46 1022.48 1022.45 1022.37 1022.25 1022.10 1021.93 1021.75 1021.56 1021.37 1021.18 1020.98 1020.76 1020.51 1020.23 1019.90 1019.54 1019.16 1018.75
1015.91 1015.46 1015.13 1014.95 1014.95 1015.14 1015.49 1015.99 1016.60 1017.29 1018.00 1018.70 1019.35 1019.93 1020.42 1020.83 1021.15 1021.40 1021.61 1021.78 1021.93 1022.07 1022.20 1022.32 1022.42 1022.48 1022.50 1022.46 1022.39 1022.26 1022.10 1021.91 1021.71 1021.50 1021.29 1021.08 1020.86 1020.63 1020.37 1020.09 1019.78 1019.43 1019.07 1018.69
1016.80 1016.43 1016.17 1016.06 1016.11 1016.33 1016.71 1017.22 1017.82 1018.47 1019.13 1019.76 1020.33 1020.80 1021.18 1021.47 1021.68 1021.82 1021.92 1022.01 1022.08 1022.16 1022.24 1022.31 1022.38 1022.42 1022.42 1022.38 1022.29 1022.15 1021.98 1021.78 1021.56 1021.34 1021.10 1020.87 1020.63 1020.39 1020.13 1019.85 1019.55 1019.23 1018.89 1018.54
1018.01 1017.72 1017.53 1017.46 1017.53 1017.74 1018.10 1018.56 1019.10 1019.68 1020.25 1020.78 1021.24 1021.60 1021.87 1022.05 1022.14 1022.18 1022.19 1022.18 1022.17 1022.17 1022.19 1022.21 1022.23 1022.23 1022.20 1022.14 1022.04 1021.90 1021.72 1021.51 1021.29 1021.06 1020.82 1020.58 1020.33 1020.09 1019.83 1019.56 1019.28 1018.98 1018.67 1018.36
1019.44 1019.24 1019.09 1019.03 1019.09 1019.26 1019.54 1019.92 1020.36 1020.82 1021.28 1021.69 1022.03 1022.28 1022.43 1022.50 1022.50 1022.44 1022.35 1022.25 1022.15 1022.07 1022.01 1021.96 1021.92 1021.87 1021.81 1021.72 1021.61 1021.46 1021.28 1021.09 1020.88 1020.66 1020.43 1020.21 1019.98 1019.75 1019.51 1019.26 1019.00 1018.73 1018.45 1018.17
1020.94 1020.80 1020.69 1020.63 1020.64 1020.74 1020.92 1021.18 1021.48 1021.81 1022.13 1022.42 1022.63 1022.77 1022.82 1022.79 1022.69 1022.54 1022.36 1022.18 1021.99 1021.82 1021.67 1021.55 1021.43 1021.33 1021.22 1021.11 1020.98 1020.83 1020.67 1020.50 1020.33 1020.14 1019.96 1019.77 1019.58 1019.39 1019.18 1018.97 1018.74 1018.50 1018.24 1017.99
1022.35 1022.26 1022.16 1022.07 1022.02 1022.03 1022.10 1022.22 1022.39 1022.57 1022.76 1022.91 1023.00 1023.03 1022.99 1022.87 1022.69 1022.47 1022.20 1021.93 1021.66 1021.41 1021.17 1020.96 1020.78 1020.61 1020.46 1020.32 1020.18 1020.04 1019.91 1019.78 1019.65 1019.53 1019.40 1019.27 1019.14 1019.00 1018.84 1018.66 1018.47 1018.25 1018.03 1017.79
1023.52 1023.46 1023.35 1023.22 1023.10 1023.01 1022.96 1022.96 1022.99 1023.04 1023.09 1023.12 1023.11 1023.05 1022.92 1022.73 1022.48 1022.19 1021.86 1021.52 1021.17 1020.84 1020.53 1020.25 1019.99 1019.77 1019.58 1019.41 1019.27 1019.15 1019.05 1018.96 1018.89 1018.82 1018.77 1018.70 1018.64 1018.55 1018.45 1018.32 1018.16 1017.98 1017.77 1017.54
1024.37 1024.30 1024.16 1023.98 1023.79 1023.61 1023.46 1023.34 1023.25 1023.19 1023.13 1023.06 1022.96 1022.82 1022.63 1022.38 1022.08 1021.74 1021.36 1020.96 1020.56 1020.17 1019.80 1019.46 1019.15 1018.89 1018.66 1018.48 1018.33 1018.22 1018.15 1018.10 1018.08 1018.07 1018.08 1018.08 1018.07 1018.05 1018.00 1017.91 1017.79 1017.64 1017.45 1017.24
1024.84 1024.74 1024.57 1024.34 1024.08 1023.83 1023.59 1023.38 1023.20 1023.04 1022.89 1022.74 1022.58 1022.38 1022.14 1021.85 1021.51 1021.14 1020.73 1020.30 1019.87 1019.44 1019.04 1018.66 1018.33 1018.03 1017.78 1017.59 1017.44 1017.34 1017.28 1017.26 1017.27 1017.31 1017.36 1017.41 1017.45 1017.47 1017.47 1017.42 1017.34 1017.21 1017.05 1016.85
1024.97 1024.82 1024.60 1024.32 1024.02 1023.70 1023.41 1023.13 1022.88 1022.65 1022.44 1022.23 1022.01 1021.77 1021.49 1021.17 1020.82 1020.43 1020.01 1019.58 1019.14 1018.70 1018.29 1017.90 1017.55 1017.25 1016.99 1016.79 1016.64 1016.54 1016.48 1016.47 1016.50 1016.55 1016.63 1016.70 1016.78 1016.83 1016.86 1016.85 1016.80 1016.71 1016.57 1016.40
1024.81 1024.61 1024.34 1024.02 1023.68 1023.33 1022.99 1022.67 1022.38 1022.10 1021.84 1021.58 1021.32 1021.04 1020.73 1020.39 1020.03 1019.64 1019.23 1018.80 1018.37 1017.96 1017.56 1017.19 1016.85 1016.55 1016.30 1016.09 1015.94 1015.83 1015.77 1015.75 1015.77 1015.82 1015.90 1015.98 1016.06 1016.14 1016.19 1016.21 1016.20 1016.14 1016.04 1015.90
1024.46 1024.20 1023.89 1023.54 1023.17 1022.80 1022.44 1022.09 1021.76 1021.45 1021.15 1020.85 1020.54 1020.22 1019.89 1019.54 1019.16 1018.78 1018.38 1017.98 1017.58 1017.20 1016.83 1016.50 1016.19 1015.91 1015.67 1015.47 1015.31 1015.19 1015.12 1015.08 1015.08 1015.11 1015.17 1015.25 1015.33 1015.42 1015.49 1015.54 1015.56 1015.54 1015.48 1015.38
1023.98 1023.67 1023.32 1022.95 1022.57 1022.19 1021.81 1021.45 1021.09 1020.74 1020.40 1020.05 1019.71 1019.35 1018.98 1018.60 1018.22 1017.84 1017.46 1017.09 1016.73 1016.39 1016.08 1015.78 1015.52 1015.28 1015.06 1014.87 1014.72 1014.59 1014.50 1014.44 1014.41 1014.42 1014.46 1014.53 1014.61 1014.70 1014.80 1014.87 1014.93 1014.96 1014.94 1014.89
1023.41 1023.07 1022.70 1022.32 1021.93 1021.54 1021.15 1020.76 1020.37 1019.99 1019.60 1019.20 1018.80 1018.40 1017.99 1017.59 1017.19 1016.81 1016.45 1016.11 1015.79 1015.50 1015.24 1015.01 1014.79 1014.59 1014.41 1014.25 1014.10 1013.98 1013.88 1013.80 1013.76 1013.75 1013.78 1013.84 1013.92 1014.03 1014.14 1014.25 1014.35 1014.41 1014.44 1014.43
1022.78 1022.41 1022.02 1021.63 1021.24 1020.83 1020.43 1020.01 1019.59 1019.15 1018.71 1018.26 1017.80 1017.34 1016.90 1016.46 1016.05 1015.67 1015.33 1015.02 1014.75 1014.52 1014.31 1014.14 1013.98 1013.83 1013.70 1013.57 1013.45 1013.34 1013.24 1013.17 1013.13 1013.11 1013.14 1013.20 1013.30 1013.42 1013.56 1013.70 1013.83 1013.93 1014.00 1014.02
Thickness
5395 5404 5408 5413 5419 5420 5422 5424 5427 5436 5439 5451 5452 5452 5453 5455 5458 5461 5464 5467 5469 5472 5474 5477 5480 5483 5485 5487 5490 5492 5493 5492 5492 5492 5492 5492 5491 5490 5490 5489 5490 5489 5489 5488
5385 5395 5400 5406 5413 5416 5420 5421 5421 5426 5430 5438 5439 5440 5441 5443 5448 5450 5452 5454 5457 5459 5462 5464 5467 5470 5472 5474 5476 5479 5480 5480 5481 5481 5480 5480 5479 5479 5478 5478 5478 5478 5478 5477
5373 5383 5390 5391 5401 5408 5411 5414 5418 5423 5427 5424 5427 5430 5432 5435 5439 5440 5442 5443 5444 5446 5449 5451 5454 5457 5459 5461 5464 5466 5467 5468 5469 5469 5469 5468 5468 5468 5467 5467 5467 5467 5466 5466
5361 5368 5369 5386 5392 5400 5403 5404 5409 5413 5414 5416 5418 5418 5420 5424 5427 5429 5430 5431 5432 5433 5435 5438 5440 5443 5446 5448 5451 5453 5454 5456 5457 5457 5457 5457 5457 5457 5456 5456 5456 5456 5455 5455
5345 5351 5362 5376 5382 5384 5387 5390 5396 5400 5402 5404 5406 5408 5407 5412 5415 5417 5418 5419 5419 5421 5423 5425 5427 5430 5433 5435 5437 5440 5442 5443 5444 5445 5446 5446 5446 5446 5446 5446 5445 5445 5445 5445
5337 5348 5355 5368 5373 5376 5381 5380 5388 5391 5393 5394 5398 5398 5398 5400 5403 5404 5405 5406 5407 5408 5410 5413 5415 5417 5420 5422 5424 5427 5429 5430 5432 5434 5435 5435 5435 5435 5435 5435 5435 5435 5435 5435
5329 5333 5345 5353 5360 5371 5369 5373 5377 5381 5384 5385 5387 5390 5389 5390 5391 5392 5393 5394 5395 5396 5398 5400 5403 5405 5408 5410 5411 5414 5417 5419 5421 5422 5423 5424 5424 5424 5425 5425 5425 5424 5425 5425
5320 5327 5338 5344 5351 5354 5356 5361 5365 5369 5371 5373 5373 5375 5376 5378 5379 5380 5381 5382 5383 5385 5386 5389 5391 5394 5396 5398 5400 5403 5405 5408 5409 5410 5411 5413 5413 5414 5414 5414 5414 5414 5414 5415
5317 5324 5328 5331 5337 5343 5347 5350 5354 5357 5360 5362 5362 5363 5364 5365 5366 5367 5369 5371 5372 5374 5376 5378 5379 5382 5384 5386 5389 5391 5393 5395 5397 5399 5399 5400 5401 5402 5403 5403 5403 5403 5404 5403
5312 5318 5322 5325 5329 5334 5338 5341 5344 5347 5349 5350 5351 5351 5352 5353 5354 5356 5357 5359 5362 5364 5365 5367 5369 5371 5373 5376 5378 5380 5382 5384 5386 5387 5388 5390 5391 5392 5393 5393 5393 5393 5393 5393
5306 5311 5317 5320 5320 5324 5328 5331 5333 5336 5338 5340 5340 5340 5341 5342 5343 5345 5347 5348 5350 5352 5355 5356 5358 5360 5363 5365 5368 5369 5371 5373 5375 5377 5378 5379 5381 5381 5382 5383 5384 5384 5384 5384
5303 5306 5307 5309 5311 5315 5318 5320 5322 5325 5327 5328 5329 5330 5330 5331 5332 5334 5336 5338 5339 5342 5344 5345 5347 5349 5352 5354 5357 5358 5361 5363 5364 5366 5368 5369 5371 5372 5374 5375 5376 5376 5376 5376
5294 5297 5298 5301 5303 5305 5307 5309 5312 5314 5315 5316 5317 5319 5320 5320 5321 5323 5325 5327 5329 5330 5332 5334 5336 5339 5341 5344 5346 5348 5350 5352 5354 5356 5358 5360 5361 5362 5364 5366 5366 5367 5367 5367
5286 5289 5292 5293 5293 5295 5297 5300 5302 5303 5304 5306 5307 5309 5310 5311 5312 5313 5315 5316 5318 5320 5322 5324 5326 5329 5331 5334 5337 5339 5341 5343 5345 5346 5348 5349 5351 5352 5353 5355 5356 5356 5357 5358
5278 5281 5282 5283 5284 5286 5288 5290 5292 5293 5295 5296 5298 5299 5301 5302 5303 5304 5305 5307 5309 5310 5312 5314 5317 5319 5322 5325 5328 5330 5332 5334 5335 5337 5339 5341 5342 5343 5344 5345 5346 5347 5347 5348
5270 5272 5273 5274 5276 5277 5278 5281 5283 5285 5286 5288 5289 5290 5292 5293 5294 5295 5296 5298 5299 5301 5302 5305 5307 5310 5313 5316 5319 5321 5323 5326 5328 5329 5330 5331 5333 5333 5334 5335 5336 5337 5338 5338
5264 5265 5266 5266 5267 5268 5269 5272 5275 5277 5278 5280 5281 5282 5284 5285 5285 5286 5287 5288 5290 5292 5294 5296 5299 5303 5305 5308 5310 5312 5314 5316 5319 5320 5321 5322 5323 5324 5325 5326 5327 5328 5328 5329
5256 5256 5257 5259 5260 5261 5263 5266 5268 5270 5271 5272 5273 5274 5275 5276 5277 5277 5278 5280 5282 5284 5287 5289 5292 5295 5298 5300 5302 5304 5305 5307 5308 5310 5311 5313 5314 5315 5316 5317 5318 5319 5320 5321
5251 5252 5252 5254 5254 5255 5257 5259 5261 5262 5264 5265 5266 5266 5267 5267 5268 5269 5270 5272 5274 5276 5279 5282 5286 5288 5290 5292 5295 5296 5297 5299 5300 5301 5303 5305 5306 5306 5307 5308 5309 5310 5311 5313
5246 5247 5247 5247 5248 5249 5250 5252 5254 5255 5256 5257 5258 5259 5259 5260 5260 5262 5263 5264 5267 5269 5273 5276 5278 5280 5282 5284 5287 5289 5290 5291 5292 5293 5294 5295 5296 5298 5299 5300 5301 5303 5304 5305
5240 5240 5241 5241 5242 5243 5244 5245 5246 5248 5249 5251 5251 5252 5252 5253 5254 5255 5256 5259 5262 5264 5267 5270 5272 5273 5275 5278 5280 5281 5282 5283 5284 5285 5286 5287 5289 5290 5292 5293 5295 5296 5298 5299
5234 5234 5234 5235 5235 5236 5237 5238 5240 5242 5243 5244 5245 5245 5246 5247 5248 5249 5251 5253 5256 5259 5261 5263 5265 5267 5269 5272 5273 5274 5275 5276 5277 5278 5279 5281 5282 5284 5285 5287 5288 5290 5292 5293
5229 5229 5229 5229 5229 5230 5231 5232 5233 5235 5236 5237 5238 5239 5239 5240 5242 5243 5246 5248 5250 5253 5255 5257 5259 5262 5265 5265 5266 5267 5269 5270 5271 5272 5273 5275 5276 5278 5279 5281 5283 5285 5287 5288
5224 5224 5224 5224 5224 5224 5225 5226 5227 5229 5229 5230 5232 5233 5234 5235 5236 5238 5239 5242 5245 5247 5248 5251 5254 5256 5258 5258 5259 5261 5262 5263 5265 5266 5267 5269 5270 5272 5274 5276 5277 5279 5281 5283
5219 5219 5218 5218 5218 5219 5220 5220 5221 5222 5224 5225 5226 5227 5228 5229 5230 5233 5234 5236 5238 5241 5242 5244 5247 5249 5250 5251 5252 5254 5256 5258 5259 5260 5262 5263 5265 5267 5269 5270 5272 5274 5276 5278
5215 5214 5214 5214 5214 5214 5215 5216 5216 5218 5219 5220 5222 5222 5223 5225 5226 5227 5229 5230 5232 5235 5236 5238 5239 5242 5243 5245 5246 5248 5250 5252 5253 5255 5256 5258 5260 5262 5264 5266 5268 5270 5272 5274
5211 5211 5210 5211 5211 5211 5211 5212 5212 5213 5214 5215 5216 5217 5219 5220 5222 5223 5224 5226 5228 5229 5231 5233 5235 5237 5238 5240 5241 5243 5245 5247 5249 5250 5252 5253 5255 5258 5260 5262 5264 5266 5269 5271